Home > Weather > Arnsberg > Past weeks

Flag for Germany Past Weather in Arnsberg, North Rhine-Westphalia, Germany — Yesterday and Last 2 Weeks

Now
61 °F

Scattered clouds.


Feels Like: 61 °F
Forecast: 53 / 64 °F
Wind: 9 mph from West

Location: Dortmund / Wickede

Current Time: Jun 26, 2016 at 1:51:37 PM

Latest Report: Jun 26, 2016 at 1:20 PM


Visibility: N/A

Pressure: 30.07 "Hg

Humidity: 63%

Dew Point: 48 °F

Location of ArnsbergLocation

Past Weather in Arnsberg — Graph

°F

Arnsberg Temperature Yesterday

Maximum temperature yesterday: 64 °F (at 5:20 AM)
Minimum temperature yesterday: 57 °F (at 4:20 PM)
Average temperature yesterday: 61 °F

High & Low Weather Summary for the Past Weeks

 TemperatureHumidityPressure
High90 °F (Jun 23, 3:20 PM)94% (Jun 13, 9:20 AM)30.24 "Hg (Jun 13, 9:20 AM)
Low48 °F (Jun 20, 5:20 AM)38% (Jun 23, 3:20 PM)29.47 "Hg (Jun 14, 2:50 PM)
Average63 °F73%29.88 "Hg
* Reported Jun 11 12:20 PM — Jun 26 12:20 PM, Arnsberg, Weather by CustomWeather, © 2016

Note: Actual official high and low records may vary slightly from our data, if they occured in-between our weather recording intervals... More about our weather records

Advertising

Arnsberg Weather History for the Previous 24 Hours

Scroll right to see more
 ConditionsComfort  
Time TempWeatherWind HumidityBarometerVisibility
12:20 PM
Sun, Jun 26
63 °FPartly sunny.10 mph59%30.07 "HgN/A
11:50 AM61 °FPartly sunny.9 mph63%30.07 "HgN/A
11:20 AM61 °FPartly sunny.12 mph63%30.07 "HgN/A
10:50 AM59 °FPartly sunny.15 mph68%30.07 "HgN/A
10:20 AM59 °FScattered clouds.13 mph72%30.04 "HgN/A
9:50 AM57 °FPartly sunny.13 mph72%30.04 "HgN/A
9:20 AM57 °FScattered clouds.9 mph77%30.04 "HgN/A
8:50 AM57 °FScattered clouds.9 mph77%30.04 "HgN/A
8:20 AM55 °FScattered clouds.10 mph82%30.04 "HgN/A
7:50 AM55 °FSunny.8 mph88%30.04 "Hg10 mi
7:20 AM54 °FSunny.7 mph88%30.04 "Hg10 mi
6:50 AM54 °FClear.8 mph88%30.04 "Hg6 mi
6:20 AM52 °FClear.8 mph88%30.04 "Hg6 mi
5:50 AM52 °FClear.7 mph88%30.01 "Hg10 mi
5:20 AM52 °FClear.7 mph88%30.01 "Hg10 mi
9:50 PM
Sat, Jun 25
57 °FScattered clouds.7 mph88%30.01 "Hg6 mi
9:20 PM57 °FPassing clouds.7 mph88%29.98 "HgN/A
8:50 PM57 °FScattered clouds.8 mph88%29.98 "HgN/A
8:20 PM59 °FScattered clouds.6 mph88%29.98 "HgN/A
7:50 PM57 °FLight rain. Scattered clouds.9 mph88%29.98 "HgN/A
7:20 PM59 °FLight rain. Partly sunny.12 mph82%29.98 "Hg4 mi
6:50 PM59 °FLight rain. Partly sunny.7 mph88%29.98 "Hg5 mi
6:20 PM59 °FPartly sunny.6 mph82%29.98 "HgN/A
5:50 PM57 °FPartly sunny.9 mph88%29.98 "HgN/A
5:20 PM57 °FPartly sunny.7 mph88%29.98 "HgN/A
4:50 PM57 °FLight rain. Partly sunny.13 mph88%29.98 "HgN/A
4:20 PM57 °FLight rain. Partly sunny.16 mph88%29.95 "Hg3 mi
3:50 PM59 °FLight rain. Fog.14 mph88%29.95 "Hg2 mi
3:20 PM61 °FLight rain. Fog.12 mph94%29.92 "Hg2 mi
2:50 PM61 °FLight rain. Fog.12 mph94%29.92 "Hg2 mi
2:20 PM61 °FLight rain. Fog.8 mph94%29.92 "Hg2 mi
1:50 PM61 °FLight rain. Fog.6 mph94%29.92 "Hg2 mi
1:20 PM61 °FLight rain. Fog.8 mph94%29.95 "Hg2 mi
Weather by CustomWeather, © 2016

See weather overviewHow to use our weather pages